Regional Weather Roundup
Issued by NWS

Home | Current Version | Previous Version | Graphics & Text | Print | Product List | Glossary On
Versions: 1 2 3 4 5 6 7 8 9 10 11 12 13 14 15 16 17 18 19 20 21 22 23 24 25 26 27 28 29 30 31 32 33 34 35 36 37 38 39 40 41 42 43 44 45 46 47 48 49 50
260
ASUS44 KJAN 010503
RWRMS

MISSISSIPPI HOURLY WEATHER ROUNDUP
NATIONAL WEATHER SERVICE JACKSON MS
1200 AM CDT WED OCT 01 2014

NOTE: "FAIR: INDICATES FEW OR NO CLOUDS BELOW 12,000 FEET WITH NO
SIGNIFICANT WEATHER AND/OR OBSTRUCTIONS TO VISIBILITY.

MSZ001>002-007>008-010>013-018>021-025>028-034>036-010600-
NORTHWEST MISSISSIPPI

CITY           SKY/WX    TMP DP  RH WIND       PRES   REMARKS
CLARKSDALE     FAIR      68  64  88 CALM      29.88S
CLEVELAND      FAIR      75  66  74 SE7       29.86S
GREENWOOD      CLEAR     69  64  84 CALM      29.88S
GREENVILLE     CLEAR     72  62  71 SE6       29.86S
GRENADA        FAIR      64  63  94 CALM      29.89S
OLIVE BRANCH   CLEAR     66  66 100 CALM      29.90S
OXFORD         FAIR      64  61  88 SE6       29.92S
TUNICA         MOCLDY    68  61  77 CALM      29.89R
$$

MSZ003>006-009-014>017-022>024-029>033-037>039-010600-
NORTHEAST MISSISSIPPI

CITY           SKY/WX    TMP DP  RH WIND       PRES   REMARKS
COLUMBUS AFB   CLEAR     64  64 100 CALM      29.90S
CORINTH          N/A     63  59  88 CALM      29.91S
GOLDN TRIANGLE CLEAR     66  57  72 CALM      29.90S
STARKVILLE     FAIR      63  61  94 CALM      29.90F
TUPELO         CLEAR     66  62  87 CALM      29.90S
$$

MSZ040-058-010600-
CENTRAL MISSISSIPPI

CITY           SKY/WX    TMP DP  RH WIND       PRES   REMARKS
JACKSON INTL   CLEAR     70  65  84 CALM      29.89R
JACKSON HAWKNS CLEAR     74  65  73 CALM      29.89S
MERIDIAN KEY   CLEAR     63  61  93 CALM      29.90S
MERIDIAN NAS   CLEAR     65  61  87 CALM      29.90F
RAYMOND        FAIR      68  63  83 CALM      29.89S
VICKSBURG      CLEAR     75  67  76 SE7       29.87S
$$

MSZ059>079-010600-
SOUTH MISSISSIPPI

CITY           SKY/WX    TMP DP  RH WIND       PRES   REMARKS
BROOKHAVEN     FAIR      70  70 100 CALM      29.91S
COLUMBIA       FAIR      68  68 100 CALM      29.88S FOG
HATTIESBURG    CLEAR     69  67  93 CALM      29.90S
MCCOMB         CLEAR     72  70  93 S3        29.89F FOG
NATCHEZ        CLEAR     73  70  88 SE8       29.88S
PINE BELT      CLEAR     66  63  88 CALM      29.91R
$$

MSZ080>082-010600-
COASTAL MISSISSIPPI

CITY           SKY/WX    TMP DP  RH WIND       PRES   REMARKS
BILOXI         CLEAR     76  71  86 E3        29.89S
PASCAGOULA     CLEAR     67  66  97 CALM      29.90S FOG
GULFPORT       CLEAR     73  70  90 CALM      29.88S
$$



USA.gov is the U.S. government's official web portal to all federal, state and local government web resources and services.